Location: Borojevi?i
(45.0486°N, 16.2297°E)
Time: 15:50:59
(UTC+00:00)

Meteor 1-21 - Pass Details

Date: 08 August 2020
Orbit: 844 x 888 km, 81.2° (Epoch: 24 September)

Event Time Altitude Azimuth Distance (km) Brightness Sun altitude
Rises 23:17:21 0° 348° (NNW) 3,504 8.5 -29.0°
Reaches altitude 10° 23:19:49 10° 348° (NNW) 2,557 7.6 -29.0°
Enters shadow 23:25:23 79° 305° (NW) 901 4.2 -28.9°
